Terug naar catalogus

CCE 1

AMPTE

ActiefWetenschapHEO
NORAD 15199·PAYLOAD·🇺🇸 United States

Gelanceerd Aug 16, 1984 vanaf Cape Canaveral Space Force Station

Loading…

Volgende Passages (komende 24 uur)

TLE

VersSource: Space-Track

Epoch: Sep 14, 2026, 12:25 UTC

1 15199U 84088A   26257.51741534 -.00000273  00000-0  00000-0 0  9998
2 15199   3.3590 232.8294 7640780 144.5807 322.4243  1.53315639201805

Volg CCE 1 in realtime met AllMySat

Download on the App Store